[[{"header":{"parameterUnit":"m.s-1","parameterCategory":1,"la1":30.2991,"la2":30.254,"lo1":-89.0895,"lo2":-89.0444,"dy":0.0017,"dx":0.0017,"nx":28,"ny":28,"refTime":"2026-02-07T03:00:00:Z","depth":0,"parameterNumber":2,"parameterNumberName":"U-component_of_WINDS"},"data":[0,0,0,0,0,0,0,0,0,0,0,0,0,0,0,0,0,0,0,0,0,0,0,0,0,0,0,0,0,0,0,0,0,0,0,0,0,0,0,0,0,0,0,0,0,0,0,0,0,0,0,0,0,0,0,0,0,0,3.2045,3.2045,0,3.2078,3.2079,3.2079,3.1995,3.1993,3.199,3.1987,3.2024,3.2027,3.2031,0,0,0,0,0,0,0,0,0,0,0,0,0,3.1911,3.1914,3.2045,3.2045,3.2046,3.2078,3.2079,3.2079,3.1996,3.1993,3.1989,3.1986,3.2023,3.2027,3.2031,0,0,0,0,0,0,0,0,0,0,0,0,0,3.196,3.1915,3.2045,3.2008,3.2005,3.2078,3.2079,3.2079,3.1996,3.1992,3.1988,3.1985,3.2022,3.2027,3.2032,3.2143,0,0,3.2047,3.205,0,0,0,0,0,0,0,0,3.1957,3.1965,3.2013,3.201,3.2007,3.2028,3.2045,3.2101,3.1997,3.2,3.1987,3.1983,3.2029,3.2033,3.2048,3.2145,3.2146,3.2048,3.2051,3.2053,3.2055,0,0,0,0,0,0,0,3.1954,3.1963,3.2058,3.2014,3.201,3.1991,3.1993,3.2055,3.2036,3.1999,3.1993,3.1998,3.2027,3.2044,3.2049,3.2147,3.2048,3.2052,3.2056,3.2058,3.2338,3.2342,0,0,0,0,0,0,3.1955,3.1961,3.2057,3.2059,3.1972,3.1996,3.1999,3.2026,3.2035,3.2033,3.2002,3.1994,3.2037,3.2043,3.205,3.2182,3.2053,3.2058,3.2061,3.2334,3.2339,3.2344,0,0,0,0,0,0,3.1952,3.1964,3.2056,3.2008,3.2018,3.2003,3.2033,3.2028,3.2045,3.2037,3.2033,3.2022,3.2034,3.2042,3.2121,3.2182,3.206,3.2065,3.2329,3.2335,3.2342,3.2446,0,0,0,0,0,0,3.1949,3.1964,3.2005,3.201,3.2021,3.2126,3.2037,3.2032,3.2054,3.2045,3.2055,3.2053,3.2031,3.2113,3.2126,3.2187,3.2069,3.2323,3.2332,3.2339,3.2437,3.2455,3.2471,0,0,0,0,0,3.1944,3.2033,3.2008,3.202,3.2072,3.2129,3.2136,3.2108,3.2059,3.2101,3.2096,3.2053,3.2173,3.2122,3.2135,3.2199,3.2319,3.2329,3.2339,3.243,3.2452,3.2471,0,0,0,0,0,0,3.2036,3.2033,3.2005,3.2097,3.2114,3.2115,3.2167,3.2132,3.2164,3.2154,3.2118,3.2122,3.2207,3.221,3.2154,3.2308,3.2238,3.2251,3.2302,3.2324,3.234,3.2338,3.2073,0,0,0,0,0,3.2068,3.2113,3.2108,3.2191,3.22,3.2183,3.2206,3.2183,3.22,3.2207,3.2207,3.2225,3.2267,3.2295,3.2333,3.2437,3.2439,3.2488,3.2504,3.2518,3.253,3.2587,3.2609,3.2376,3.2376,3.2376,0,0,3.2132,3.2136,3.2167,3.2209,3.2219,3.2269,3.2189,3.2244,3.2281,3.2215,3.2289,3.2291,3.2309,3.2401,3.2441,3.2406,3.2595,3.2531,3.2542,3.2546,3.26,3.2622,3.2641,3.2383,3.2382,3.238,0,0,3.2275,3.2282,3.2352,3.2365,3.2381,3.2369,3.2386,3.2393,3.2391,3.2465,3.2417,3.2461,3.2533,3.2548,3.2566,3.2717,3.2679,3.273,3.2819,3.2875,3.2894,3.291,3.2965,3.2985,3.2742,3.2742,3.2742,0,3.2354,3.2425,3.2393,3.2452,3.2473,3.2415,3.2487,3.2501,3.253,3.2546,3.2506,3.2597,3.2605,3.27,3.2738,3.2753,3.2773,3.2729,3.2893,3.2909,3.2924,3.2976,3.2997,3.2749,3.2748,3.2747,3.2747,0,3.2522,3.2572,3.2627,3.2656,3.2683,3.2748,3.2727,3.2758,3.2734,3.2726,3.2804,3.2811,3.2851,3.2872,3.2848,3.2965,3.2943,3.2899,3.2828,3.2953,3.3002,3.3021,3.2757,3.2755,3.2753,3.2752,0,0,3.2723,3.2734,3.2755,3.2768,3.2783,3.2822,3.2886,3.2924,3.2952,3.2974,3.3027,3.3091,3.3051,3.307,3.3048,3.3098,3.3219,3.3048,3.3047,3.308,3.335,3.3384,3.3407,3.3194,3.3197,3.32,3.3349,0,3.2865,3.2973,3.2947,3.3054,3.3101,3.3049,3.3104,3.312,3.3115,3.3156,3.315,3.3197,3.3139,3.3151,3.3197,3.3194,3.3273,3.3183,3.3244,3.3247,3.3242,3.3433,3.3468,3.3608,3.3368,3.3371,3.3373,0,3.3045,3.3075,3.3187,3.3195,3.3214,3.3264,3.3298,3.3337,3.3355,3.3348,3.3371,3.334,3.3404,3.3333,3.3422,3.3361,3.3385,3.3388,3.3392,3.3398,3.3318,3.3444,3.3652,3.3673,3.3403,3.34,3.3398,0,3.3183,3.325,3.3326,3.3339,3.3351,3.3387,3.3394,3.3408,3.3433,3.3463,3.348,3.3517,3.3538,3.3568,3.3548,3.3498,3.3642,3.3568,3.3639,3.364,3.3672,3.367,3.3887,3.3686,3.3686,3.3685,3.3685,0,3.3345,3.3416,3.3388,3.3435,3.3514,3.3484,3.3563,3.3563,3.3577,3.3624,3.3581,3.3626,3.3597,3.3641,3.3626,3.3703,3.3713,3.371,3.3705,3.3714,3.3715,3.373,3.372,3.3691,3.369,3.3689,3.3688,0,3.3511,3.3495,3.3575,3.358,3.3583,3.3641,3.3646,3.369,3.3683,3.3743,3.3756,3.3744,3.3794,3.3777,3.383,3.382,3.3919,3.3901,3.3913,3.3909,3.3981,3.3975,3.4216,3.4247,3.4025,3.4027,3.4029,0,3.3616,3.3669,3.368,3.3709,3.3719,3.3765,3.379,3.3763,3.3792,3.3818,3.386,3.3905,3.394,3.4022,3.4019,3.406,3.4044,3.4125,3.405,3.4058,3.4046,3.4044,3.405,3.4141,3.4143,3.4145,3.4147,0,3.3804,3.3794,3.3832,3.3868,3.39,3.3928,3.3951,3.3977,3.3952,3.3987,3.4037,3.4064,3.4118,3.4165,3.4202,3.421,3.4176,3.4171,3.419,3.42,3.4205,3.4205,3.3955,3.4166,3.4164,3.4162,3.4161,3.4161,3.3944,3.3989,3.4004,3.4049,3.4064,3.4088,3.413,3.4128,3.4169,3.4211,3.4193,3.4251,3.4269,3.4316,3.4329,3.4375,3.4344,3.4371,3.4378,3.4385,3.4395,3.4197,3.4382,3.4381,3.4381,3.438,3.438,0,3.413,3.4138,3.4179,3.4214,3.4249,3.4213,3.4237,3.427,3.4321,3.4341,3.4377,3.4435,3.448,3.4482,3.4524,3.4561,3.4547,3.4573,3.4571,3.4574,3.442,3.44,3.4585,3.4585,3.4585,3.4585,3.4585,3.4585,3.4232,3.4308,3.43,3.4383,3.439,3.4446,3.4464,3.4486,3.4502,3.4569,3.4606,3.4606,3.4619,3.4663,3.4704,3.4703,3.4721,3.4755,3.4748,3.4605,3.4584,3.4565,3.4546,3.4759,3.4759,3.4898,3.49,3.4901]},{"header":{"parameterUnit":"m.s-1","parameterCategory":1,"la1":30.2991,"la2":30.254,"lo1":-89.0895,"lo2":-89.0444,"dy":0.0017,"dx":0.0017,"nx":28,"ny":28,"refTime":"2026-02-07T03:00:00:Z","depth":0,"parameterNumber":3,"parameterNumberName":"V-component_of_WINDS"},"data":[0,0,0,0,0,0,0,0,0,0,0,0,0,0,0,0,0,0,0,0,0,0,0,0,0,0,0,0,0,0,0,0,0,0,0,0,0,0,0,0,0,0,0,0,0,0,0,0,0,0,0,0,0,0,0,0,0,0,0.1519,0.152,0,0.1538,0.1538,0.1538,0.1541,0.1541,0.154,0.154,0.1559,0.1559,0.156,0,0,0,0,0,0,0,0,0,0,0,0,0,0.1486,0.1486,0.1519,0.152,0.152,0.1538,0.1538,0.1538,0.1541,0.1541,0.154,0.154,0.1559,0.1559,0.156,0,0,0,0,0,0,0,0,0,0,0,0,0,0.1502,0.1486,0.1519,0.1523,0.1524,0.1538,0.1538,0.1538,0.1541,0.1541,0.154,0.154,0.1558,0.1559,0.156,0.1572,0,0,0.1563,0.1564,0,0,0,0,0,0,0,0,0.1501,0.1503,0.1522,0.1523,0.1524,0.1537,0.1533,0.1549,0.1541,0.1534,0.154,0.154,0.1552,0.1553,0.1557,0.1572,0.1573,0.1563,0.1564,0.1564,0.1565,0,0,0,0,0,0,0,0.15,0.1502,0.1527,0.1523,0.1523,0.1524,0.1526,0.1536,0.1544,0.1535,0.1535,0.1537,0.1552,0.1556,0.1558,0.1573,0.1563,0.1564,0.1565,0.1565,0.1598,0.1598,0,0,0,0,0,0,0.1498,0.1501,0.1526,0.1527,0.1511,0.1525,0.1527,0.1533,0.1544,0.1546,0.1538,0.1537,0.1555,0.1557,0.1558,0.1572,0.1564,0.1565,0.1566,0.1598,0.1598,0.1599,0,0,0,0,0,0,0.1497,0.15,0.1525,0.1514,0.1518,0.1526,0.1532,0.1533,0.1538,0.1546,0.1548,0.154,0.1555,0.1557,0.1568,0.1573,0.1566,0.1567,0.1598,0.1598,0.1598,0.1599,0,0,0,0,0,0,0.1496,0.15,0.1504,0.1514,0.1518,0.1535,0.1532,0.1534,0.1539,0.1539,0.1549,0.1551,0.1555,0.1567,0.1569,0.1574,0.1567,0.1597,0.1598,0.1598,0.1599,0.16,0.16,0,0,0,0,0,0.1495,0.1504,0.1505,0.1508,0.1524,0.1535,0.1537,0.1542,0.154,0.1544,0.155,0.155,0.1572,0.1568,0.1571,0.1576,0.1597,0.1598,0.1598,0.1599,0.16,0.16,0,0,0,0,0,0,0.1494,0.1505,0.1506,0.1519,0.1526,0.1536,0.1542,0.1543,0.1551,0.155,0.1555,0.1558,0.1569,0.1573,0.1569,0.1587,0.1584,0.1585,0.1583,0.1584,0.1585,0.1584,0.1568,0,0,0,0,0,0.1496,0.1504,0.1513,0.1523,0.1527,0.1534,0.1539,0.1541,0.1549,0.1552,0.1558,0.1566,0.1574,0.1579,0.1588,0.16,0.1601,0.1604,0.1605,0.1606,0.1607,0.1613,0.1614,0.1601,0.1601,0.1601,0,0,0.1498,0.1506,0.1511,0.1523,0.1529,0.1538,0.1536,0.1545,0.1551,0.1554,0.1564,0.1569,0.1578,0.1589,0.1594,0.1593,0.1611,0.1606,0.1607,0.1607,0.1613,0.1615,0.1616,0.1601,0.1601,0.1601,0,0,0.1508,0.1514,0.1523,0.1529,0.1538,0.1542,0.1544,0.1554,0.1557,0.1568,0.157,0.1577,0.1591,0.1597,0.1602,0.1613,0.1614,0.1615,0.1619,0.1625,0.1626,0.1627,0.1631,0.1632,0.1616,0.1616,0.1616,0,0.151,0.1523,0.1527,0.1536,0.1542,0.1544,0.1553,0.1558,0.157,0.1573,0.1572,0.1589,0.1595,0.1608,0.161,0.1614,0.1617,0.1614,0.1626,0.1627,0.1628,0.1631,0.1632,0.1616,0.1616,0.1616,0.1616,0,0.1525,0.1534,0.154,0.1551,0.1557,0.1565,0.1571,0.1577,0.1579,0.1583,0.1594,0.1601,0.161,0.1613,0.1616,0.1626,0.1625,0.1625,0.1622,0.1629,0.1632,0.1633,0.1617,0.1617,0.1617,0.1616,0,0,0.1535,0.1547,0.155,0.1554,0.1564,0.1571,0.158,0.1589,0.1593,0.1601,0.1608,0.162,0.1619,0.1625,0.1627,0.1633,0.164,0.1631,0.1632,0.1632,0.1652,0.1652,0.1653,0.1641,0.1641,0.1641,0.1651,0,0.1545,0.1561,0.1565,0.1578,0.1586,0.1588,0.1595,0.1602,0.1606,0.1613,0.1618,0.1626,0.1625,0.1628,0.1633,0.1638,0.1644,0.1638,0.1647,0.1647,0.1645,0.1655,0.1656,0.1664,0.1652,0.1653,0.1653,0,0.1559,0.1567,0.1581,0.1589,0.1593,0.1599,0.1608,0.1615,0.1622,0.1625,0.1631,0.1633,0.1641,0.1638,0.165,0.1646,0.165,0.1653,0.1653,0.1654,0.165,0.1656,0.1667,0.1669,0.1655,0.1655,0.1654,0,0.1564,0.1578,0.1588,0.1592,0.1602,0.1607,0.1611,0.1619,0.1624,0.1631,0.1634,0.1642,0.1647,0.1653,0.1657,0.1655,0.1668,0.1666,0.1671,0.167,0.1673,0.1673,0.1685,0.1676,0.1676,0.1676,0.1676,0,0.1575,0.1583,0.1591,0.1597,0.1606,0.161,0.1619,0.1624,0.163,0.1637,0.1639,0.1646,0.1651,0.1658,0.1661,0.167,0.1672,0.1674,0.1675,0.1674,0.1673,0.1676,0.1676,0.1677,0.1677,0.1676,0.1676,0,0.1582,0.1588,0.1599,0.1607,0.161,0.1616,0.1623,0.1629,0.1633,0.1642,0.1644,0.165,0.1659,0.1663,0.1674,0.1676,0.1686,0.1686,0.1683,0.1683,0.1688,0.1687,0.1702,0.1704,0.1694,0.1694,0.1694,0,0.1589,0.1596,0.1605,0.161,0.1614,0.1622,0.1627,0.1631,0.1637,0.1645,0.165,0.1658,0.1665,0.1678,0.1683,0.1691,0.1692,0.1696,0.1693,0.1691,0.1691,0.1691,0.1691,0.1697,0.1697,0.1697,0.1697,0,0.16,0.1602,0.161,0.1618,0.1624,0.163,0.1637,0.1641,0.1646,0.1652,0.166,0.1666,0.1676,0.1684,0.1692,0.1696,0.1697,0.1698,0.1699,0.1698,0.1696,0.1697,0.1684,0.1698,0.1698,0.1698,0.1697,0.1697,0.1607,0.1613,0.162,0.1628,0.1633,0.1639,0.1645,0.165,0.1657,0.1666,0.1668,0.1677,0.1683,0.1694,0.1699,0.1705,0.1705,0.1707,0.1707,0.1708,0.1708,0.1695,0.1707,0.1707,0.1707,0.1707,0.1707,0,0.1618,0.1623,0.163,0.1639,0.1645,0.1646,0.1653,0.1658,0.1666,0.1672,0.1679,0.1688,0.1696,0.1701,0.1709,0.1713,0.1714,0.1715,0.1715,0.1716,0.1708,0.1706,0.1714,0.1714,0.1714,0.1714,0.1714,0.1714,0.1624,0.1634,0.1637,0.1649,0.1653,0.1662,0.1666,0.1671,0.1676,0.1687,0.1693,0.1697,0.1703,0.1711,0.1718,0.1719,0.1722,0.1723,0.1724,0.1717,0.1716,0.1715,0.1713,0.1723,0.1723,0.1731,0.1731,0.1731]}]]